Regional Weather Roundup
Issued by NWS

Home | Current Version | Previous Version | Text Only | Print | Product List | Glossary On
Versions: 1 2 3 4 5 6 7 8 9 10 11 12 13 14 15 16 17 18 19 20 21 22 23 24 25 26 27 28 29 30 31 32 33 34 35 36 37 38 39 40 41 42 43 44 45 46 47 48 49 50
000
ASUS44 KEWX 282310
RWRTX
SOUTH TEXAS REGIONAL WEATHER ROUNDUP
NATIONAL WEATHER SERVICE AUSTIN/SAN ANTONIO TX
600 PM CDT MON JUL 28 2014

NOTE: "FAIR" INDICATED FEW OR NO CLOUDS BELOW 12,000 FEET WITH NO
SIGNIFICANT WEATHER AND/OR OBSTRUCTIONS TO VISIBILITY.

* - THESE STATIONS ARE NOT NWS OR FAA STATIONS...AND ARE NOT SUBJECT
    TO NWS AND FAA QUALITY CONTROL.

TXZ171-172-183>190-290000-
TEXAS HILL COUNTRY AND EDWARDS PLATEAU

CITY           SKY/WX    TMP DP  RH WIND       PRES   REMARKS
JUNCTION       MOSUNNY   98  59  27 SE15      30.06F HX  98
*LLANO         MOSUNNY   99  59  26 SE6       30.07F HX  98
BURNET         SUNNY     96  59  29 E7        30.08F HX  95
*HORSESHOE BAY SUNNY     99  54  22 SE3       30.05F HX  97
*KERRVILLE     SUNNY     97  61  30 SE10      30.08F HX  97
*FREDERICKSBRG SUNNY     95  55  25 SE5       30.08F HX  93
*ROCKSPRINGS   SUNNY     93  59  31 SE9       30.12F HX  92
*BOERNE STAGE  SUNNY     93  59  31 SE5       30.08F HX  92
*CASTROVILLE   SUNNY     98  59  26 SE7       30.04F HX  98
HONDO          SUNNY     96  63  33 SE8       30.05F HX  97
*UVALDE        SUNNY     96  64  34 SE8       30.03F HX  98
DEL RIO        SUNNY     99  59  26 E16       30.00F HX  99
LAUGHLIN AFB   SUNNY     98  62  30 E14       30.01F HX  98
CARRIZO SPRGS  MOSUNNY   99  64  32 E12       29.98F HX 101
$$

TXZ173-191>194-202-209-217>225-228-290000-
CENTRAL AND SOUTH CENTRAL TEXAS

CITY           SKY/WX    TMP DP  RH WIND       PRES   REMARKS
GEORGETOWN     MOSUNNY   97  64  34 SE5       30.03F HX  99
AUSTIN/BERGSTM MOSUNNY   97  66  36 NE9       30.02F HX 100
AUSTIN/MABRY   SUNNY     98  64  32 VRB5      30.04F HX 100
*AUSTIN/EXEC   PTSUNNY   99  66  34 SE5       30.04F HX 102
*LAGO VISTA    SUNNY     97  56  25 CALM      30.07F HX  95
SAN MARCOS     MOSUNNY   99  63  30 E5        30.04F HX 100
NEW BRAUNFELS  MOSUNNY   99  61  28 MISG      30.02F HX  99
RANDOLPH AFB   PTSUNNY   97  64  32 VRB2      30.04F HX  99
PT SAN ANTONIO SUNNY     96  63  33 CALM      30.02F HX  97
SAN ANTONIO    MOSUNNY   96  66  37 SE12      30.04F HX  99
STINSON FIELD  SUNNY     98  63  31 SE7       30.01F HX 100
*PLEASANTON    SUNNY    100  60  26 N3        30.00F HX 100
*LA GRANGE     MOSUNNY   99  65  33 CALM      30.00F HX 101
*GIDDINGS      MOSUNNY   94  63  35 CALM      30.06F HX  95
*GONZALES      MOSUNNY  100  65  31 S6        30.00F HX 103
$$

TXZ163>164-176>182-195>201-210>213-226-227-235-290000-
SOUTHEAST TEXAS

CITY           SKY/WX    TMP DP  RH WIND       PRES   REMARKS
COLLEGE STN    MOSUNNY   96  65  35 CALM      30.02F HX  98
*BRYAN         MOSUNNY  N/A N/A N/A CALM      30.02F
*CALDWELL      MOSUNNY   95  61  31 CALM      30.05F HX  95
*CROCKETT      MOSUNNY   91  81  70 W3        30.07S HX 110
*BRENHAM       MOSUNNY   96  61  31 CALM      30.03S HX  96
HUNTSVILLE     MOSUNNY   95  69  42 CALM      30.04F HX 100
CONROE         MOSUNNY   96  69  41 NW5       30.03S HX 102
HOUSTON BUSH   PTSUNNY   97  62  31 W7        30.01F HX  98
HOUSTON HOBBY  PTSUNNY   96  67  38 SW7       30.00F HX 100
*HOUSTON SW AP SUNNY     94  68  42 SE3       30.02S HX  98
PEARLAND       SUNNY     95  73  48 S8        30.03F HX 104
HOUSTON HOOKS  SUNNY     93  67  42 SW6       30.02F HX  96
ELLINGTON FLD  NOT AVBL
SUGAR LAND     SUNNY     96  67  38 CALM      30.01F HX 100
*HOUSTON EXEC  SUNNY     95  68  41 CALM      30.03F HX  99
*CLEVELAND MUN SUNNY     94  76  55 CALM      30.02F HX 106
*WHARTON       MOSUNNY   86  71  60 S12G25    30.03S THUNDER HX  91
$$

TXZ214>216-236>238-290000-
THE UPPER TEXAS COAST

CITY           SKY/WX    TMP DP  RH WIND       PRES   REMARKS
*ORANGE        SUNNY     92  69  46 W3        30.01F HX  97
PORT ARTHUR    SUNNY     93  73  52 VRB3      29.99F HX 102
GALVESTON      MOSUNNY   88  77  69 S15       30.03F HX 100
ANGLETON       MOSUNNY   84  72  67 SW6       30.02F
*BAY CITY      SUNNY     94  72  49 S13       30.02F HX 101
PALACIOS       SUNNY     89  76  65 S13       30.02F HX 100
$$

TXZ229>234-239>247-290000-
TEXAS COASTAL BEND AND RIO GRANDE PLAINS

CITY           SKY/WX    TMP DP  RH WIND       PRES   REMARKS
VICTORIA       SUNNY     97  74  47 S16G25    30.01F HX 108
*BEEVILLE      MOSUNNY   98  69  38 SE14G20   30.00F HX 103
ROCKPORT       SUNNY     89  76  65 SE14      30.03F HX 100
*PORT ARANSAS  SUNNY     86  77  75 SE12      30.04F HX  97
*PORT LAVACA   SUNNY     92  73  52 S14       30.02F HX 100
*INGLESIDE     SUNNY     92  73  54 SE17G23   30.03F HX 100
CORPUS CHRISTI MOSUNNY   93  72  50 SE18      30.02F HX 101
CORPUS NAS     PTSUNNY   89  76  65 SE16      30.03F HX 100
*ROBSTOWN      NOT AVBL
ALICE          SUNNY     96  71  44 SE20G25   29.99F HX 103
KINGSVILLE NAS MOSUNNY   94  72  48 SE17G25   30.01F HX 102
COTULLA        MOSUNNY  101  59  24 VRB3      29.98F HX 101
*FAITH RANCH   MOSUNNY  100  59  25 E5        30.00F HX 100
LAREDO         MOSUNNY  104  61  24 E10       29.98F HX 105
$$

TXZ248>255-290000-
DEEP SOUTH TEXAS

CITY           SKY/WX    TMP DP  RH WIND       PRES   REMARKS
BROWNSVILLE    MOSUNNY   91  73  55 S18G25    30.02F HX  99
PORT ISABEL    SUNNY     90  74  59 SE20G28   30.02S HX  99
*SOUTH PADRE   SUNNY     90  77  66 SE8       30.03S HX 102
HARLINGEN      SUNNY     95  70  44 S17G24    29.99F HX 101
*HEBBRONVILLE  SUNNY    100  57  23 SE13      29.99F HX  99
MCALLEN        MOSUNNY   97  68  38 SE18G25   29.99S HX 102
*WESLACO       SUNNY     96  64  34 SE13G23   29.98F HX  98
FALFURRIAS     SUNNY     93  62  35 E15G22    29.98S HX  93
EDINBURG       SUNNY     99  64  31 SE18      29.99S HX 100
*ZAPATA        NOT AVBL
$$

TXZ213>215-236>238-242>244-246-247-251-254-255-290000-
CMAN STATIONS

STATION/POSITION TIME  TEMP    WIND        PRES    WAVE
                       AIR SEA DIR/SP/G            HT/PER
                 (UTC) (F)     (DEG/KT/KT) (MB)    (FT/S)
SABINE PASS      2300   89 89  220/  8/ 15 1016.5
SEA RIM ST PARK  2300   86     220/ 13/ 16 1016.7
NORTH JETTY/GLS  2300   85 93  220/ 13/ 15   N/A
EAGLE POINT      2300   88 91  210/ 12/ 14 1016.7
MORGANS POINT    2300   90 92  170/  7/ 13 1016.4
MISSION/ARANSAS  2200   85     140/ 12     1018.0
PORT O`CONNOR    2300          160/ 13/ 15   N/A
PORT ARANSAS     2300   83 86  130/  9/ 10 1018.1
MALAQUITE BEACH  2300   82 81  120/ 10/ 11 1016.6
BAFFIN BAY       2300   85 90  140/ 16/ 19 1016.8
PORT ISABEL      2300   85 84  130/ 13/ 17 1017.3
$$

GMZ080-GMZ150>470-290000-
OFFSHORE BUOY REPORTS

STATION/POSITION TIME  TEMP    WIND        PRES    WAVE
                       AIR SEA DIR/SP/G            HT/PER
                 (UTC) (F)     (DEG/KT/KT) (MB)    (FT/S)
90 E PT ARANSAS  2300   84 86  140/  4/  6 1018.1    2/ 5
35 NE PT MANSFLD 2300   85 85  160/ 14/ 16 1016.9    2/ 6
200 E PT ISABEL  2300   85 89  160/  2/  4 1017.9    1/ 5
$$


USA.gov is the U.S. government's official web portal to all federal, state and local government web resources and services.